Location: Stony Creek
(40.9500°S, 175.8500°E)
Time: 10:14:32
(UTC+00:00)

Cosmos 2297 - Pass Details

Date: 15 May 2026
Orbit: 834 x 858 km, 71.0° (Epoch: 9 June)

Event Time Altitude Azimuth Distance (km) Brightness Sun altitude
Exits shadow 17:25:49 42° 268° (W) 1,193 4.0 -21.1°
Maximum altitude 17:26:27 44° 286° (WNW) 1,163 4.0 -20.9°
Drops below altitude 10° 17:31:47 10° 357° (N) 2,468 6.2 -19.9°
Sets 17:34:19 0° 3° (N) 3,399 7.0 -19.5°
